Location: Abacherli Canyon
(33.9250°N, 117.6553°W)
Time: 04:00:19
(UTC+00:00)

Daily predictions for brighter satellites

Satellite Brightness Start Highest point End
(mag) Time Altitude Azimuth Time Altitude Azimuth Time Altitude Azimuth
YAOGAN 1 2.6 02:10:06 10° SSE 02:14:20 58° ENE 02:18:35 10° N
Cosmos 2333 Rocket 3.1 02:11:48 10° N 02:16:46 30° ENE 02:21:43 10° ESE
Cosmos 1461 4.2 02:14:03 10° SW 02:17:55 42° WNW 02:21:42 10° NNE
CSL-04 Rocket 3.7 02:14:14 10° SSE 02:19:40 73° ENE 02:25:11 10° N
ISS -3.3 02:16:33 10° SSW 02:19:42 42° SE 02:22:51 10° ENE
Cosmos 2237 Rocket 4.0 02:20:27 10° NNE 02:22:53 13° NE 02:25:18 10° E
CSL-04 Debris 4.1 02:19:30 10° SSE 02:24:52 81° ENE 02:30:17 10° N
Cosmos 2184 Rocket 4.0 02:30:09 10° N 02:36:24 71° E 02:42:40 10° SSE
CZ-2D R/B 3.3 02:33:36 10° SSE 02:37:18 53° ENE 02:41:00 10° N
ASTEX 1 4.1 02:34:18 10° NNE 02:38:37 30° E 02:42:54 10° SSE
Cosmos 1939 Rocket 2.9 02:37:37 10° SSE 02:41:21 50° ENE 02:45:06 10° N
Cosmos 1544 2.9 02:38:32 10° S 02:42:06 79° E 02:45:42 10° N
Meteor 2-15 Rocket 4.4 02:37:04 10° S 02:43:11 79° E 02:49:20 10° N
Envisat 4.5 02:39:49 10° SSW 02:44:34 40° W 02:49:20 10° NNW
PSLV R/B 2.6 02:42:38 10° WSW 02:45:18 83° NNW 02:47:02 19° ENE
Lacrosse 5 rocket 1.4 02:42:12 10° SSW 02:45:34 40° SE 02:48:39 12° NE
SAR-Lupe-2 3.7 02:43:40 10° NNE 02:47:09 47° E 02:50:34 10° S
ADEOS Rocket 4.3 02:40:53 10° NE 02:47:13 28° E 02:53:38 10° SSE
FREGAT/IRIS 3.6 02:49:23 23° ENE 02:49:25 23° ENE 02:51:43 10° NNE
Cosmos 389 Rocket 4.1 02:52:26 10° NNE 02:54:06 17° ENE 02:54:06 17° ENE
Nadezhda 1 Rocket 4.0 02:50:22 10° S 02:56:25 85° W 03:02:31 10° N
Cosmos 2333 4.3 02:50:56 10° NNW 02:56:38 83° WSW 03:02:21 10° SSE
H-2A R/B 3.3 02:56:23 19° ENE 02:57:02 19° ENE 03:00:28 10° NNE
Cosmos 2219 Rocket 2.1 02:52:50 10° NNW 02:58:24 67° ENE 03:03:51 11° SSE
Cosmos 1455 Rocket 4.1 02:59:35 24° E 02:59:45 24° E 03:03:21 10° NE
Cosmos 1610 Rocket 4.5 02:53:47 10° N 03:00:07 74° E 03:06:28 10° S
NOAA 11 4.2 02:55:07 10° SSE 03:00:37 86° ENE 03:06:08 10° NNW
Cosmos 2251 Rocket 4.1 02:56:00 10° NNW 03:01:19 61° WSW 03:06:33 10° S
Cosmos 1842 4.4 02:58:03 10° NNW 03:01:50 45° W 03:05:34 10° SSW
HJ-1C 3.2 03:00:23 11° SSE 03:03:34 75° ENE 03:06:56 10° N
Cosmos 2327 Rocket 4.4 02:58:03 10° N 03:04:16 90° S 03:10:22 10° S
COSMOS 2455 3.3 02:59:22 10° NNW 03:05:18 62° WSW 03:11:12 10° S
Cosmos 2084 Rocket 3.5 03:00:58 10° SSW 03:05:21 62° ESE 03:09:46 10° NE
MONITOR-E 3.7 03:04:35 29° SSE 03:05:49 77° E 03:08:37 10° N
Cosmos 405 Rocket 3.0 03:05:13 21° SSE 03:07:13 39° E 03:10:41 10° NNE
COSMOS 2428 2.6 03:02:05 10° NNW 03:07:47 83° ENE 03:13:18 11° SSE
ATLAS 2AS CENTAUR R/B 2.8 03:01:07 10° NNW 03:08:37 67° ENE 03:13:31 21° SE
MOS 1 4.3 03:03:54 10° SSE 03:09:31 64° ENE 03:15:09 10° N
Cosmos 2360 Rocket 4.3 03:06:20 10° NW 03:10:58 27° WSW 03:15:36 10° SSW
Aureole 1 Rocket 3.2 03:07:34 10° NNW 03:12:05 63° WSW 03:15:17 12° S
Cosmos 1295 Rocket 4.4 03:06:13 10° N 03:12:17 60° E 03:18:16 10° SSE
GPS 2-05 Rocket1 4.2 03:10:25 10° WSW 03:12:32 20° SSW 03:12:59 19° SSW
CZ-2C R/B 3.5 03:12:06 10° NNE 03:16:33 85° E 03:20:58 10° SSW
Cosmos 2227 Rocket 2.1 03:14:14 10° S 03:19:48 65° ESE 03:25:24 10° NNE
deb Centaur AC-2 4.3 03:17:07 10° WSW 03:21:18 51° S 03:22:16 42° SE
Cosmos 2219 3.6 03:16:07 10° SSW 03:21:49 67° WNW 03:27:33 10° NNE
ARGOS 3.8 03:21:26 33° E 03:21:56 33° ENE 03:26:43 10° N
DELTA 2 R/B (1) 3.7 03:16:23 10° WSW 03:21:59 71° NNW 03:25:06 27° ENE
Meteor 1-4 Rocket 4.3 03:18:57 10° NNE 03:20:16 19° NNE 03:20:16 19° NNE
USA 186 2.3 03:23:16 47° NE 03:23:16 47° NE 03:26:03 10° N
Ariane Rocket 3.8 03:21:54 10° S 03:26:46 50° W 03:31:42 10° NNW
GEOS 3 Rocket 3.5 03:27:02 40° ESE 03:28:47 67° NE 03:33:52 10° NNW
Cosmos 2297 Rocket 2.1 03:24:48 10° SSW 03:30:27 86° ESE 03:36:09 10° NNE
Meteor 1-15 Rocket 4.4 03:28:18 10° SSW 03:34:01 79° W 03:39:53 10° N
Resurs 01 Rocket 3.6 03:37:17 16° NNE 03:37:17 16° NNE 03:38:29 10° NNE
Cosmos 614 Rocket 4.0 03:32:27 10° N 03:37:35 56° ENE 03:37:57 54° E
Cosmos 2056 Rocket 3.8 03:32:27 10° SSW 03:37:50 70° WNW 03:43:15 10° NNE
Cosmos 2181 Rocket 3.9 03:35:28 10° S 03:41:40 85° E 03:47:59 10° N
Cosmos 407 Rocket 3.3 03:40:49 10° NNW 03:45:56 72° ENE 03:46:14 70° E
Cosmos 2341 Rocket 3.9 03:41:17 10° N 03:47:32 86° W 03:51:35 23° S
CZ-2C R/B 4.1 03:55:19 33° NNE 03:55:19 33° NNE 03:58:47 10° N
Cosmos 1707 4.3 03:51:07 10° NNW 03:54:40 34° W 03:56:17 24° SW
ISS -1.2 03:54:13 10° WNW 03:56:34 18° NNW 03:56:58 17° NNW
SJ-6B 3.6 04:00:40 52° W 04:00:40 52° W 04:04:27 10° NNW
Cosmos 2333 Rocket 3.8 03:55:57 10° NW 04:00:57 32° WSW 04:05:39 11° SSW
In-Cosmos 22 4.3 03:56:57 10° NNW 04:02:19 71° W 04:03:37 52° SSW
Meteor 1-24 Rocket 4.5 03:57:11 10° N 04:01:21 41° NE 04:01:21 41° NE
Cosmos 1892 Rocket 4.1 03:58:41 10° NNW 04:02:35 58° WNW 04:02:35 58° WNW
Cosmos 2218 Rocket 3.8 03:59:02 10° N 04:05:24 77° E 04:05:40 75° ESE
SPOT 3 Rocket 3.9 04:04:34 49° SSW 04:05:39 61° W 04:10:44 10° NNW
Cosmos 2237 Rocket 2.1 04:01:53 10° NNW 04:07:37 83° WSW 04:07:45 82° SW
Cosmos 2366 rocket 3.9 04:01:59 10° N 04:08:17 75° ENE 04:08:17 75° ENE
Cosmos 1140 Rocket 4.0 04:04:12 10° NNW 04:08:06 51° N 04:08:06 51° N
Cosmos 864 Rocket 4.4 04:05:00 10° N 04:10:49 73° NE 04:10:49 73° NE
NOSS 3-4 (A) 4.1 04:08:48 10° NW 04:16:01 67° WSW 04:18:11 48° S
NOSS 3-4 (C) 4.1 04:08:54 10° NW 04:16:07 68° WSW 04:18:14 49° S
Cosmos 1980 3.9 04:11:28 10° NNW 04:17:02 62° WSW 04:17:11 62° WSW
SL-8 Rocket 4.1 04:12:04 10° NNW 04:18:13 69° W 04:19:15 58° SW
Lacrosse 5 rocket 3.9 04:22:26 10° W 04:24:24 16° NW 04:24:24 16° NW
Meteor 2-5 Rocket 4.1 04:20:45 10° NNW 04:26:10 67° WNW 04:26:10 67° WNW
ADEOS Rocket 4.2 04:25:31 10° N 04:32:44 53° WNW 04:40:13 10° SW
H-2A R/B 3.3 04:37:01 36° WNW 04:37:01 36° WNW 04:40:46 10° NNW
SL-16 R/B 3.6 04:33:01 10° NNW 04:35:58 31° N 04:35:58 31° N
ATLAS 3B R/B 3.9 10:15:44 35° NNE 10:15:44 35° NNE 10:19:19 10° NNE
ADEOS II 4.4 10:19:53 10° NNE 10:21:05 17° NNE 10:21:05 17° NNE
Cosmos 2369 Rocket 4.0 10:36:35 24° N 10:36:35 24° N 10:38:47 10° NNE
CENTAUR R/B 3.4 10:54:58 38° N 10:54:58 38° N 10:59:32 10° NNE
SeaSat 1 4.1 10:49:10 10° NE 10:53:20 28° ESE 10:53:20 28° ESE
Atlas Centaur 2 3.0 11:02:37 52° SE 11:02:37 52° SE 11:08:41 10° ESE
ADEOS 4.4 11:03:00 10° NNE 11:08:02 47° E 11:08:38 44° ESE
Lacrosse 5 rocket 3.2 11:10:33 30° E 11:10:33 30° E 11:13:07 10° ESE
Meteor 1-10 Rocket 4.4 11:11:23 73° ESE 11:11:37 74° E 11:17:33 10° NNE
Cosmos 1092 Rocket 4.0 11:14:39 66° NNW 11:14:39 66° NNW 11:19:59 10° N
Cosmos 1943 Rocket 4.0 11:17:18 18° NNW 11:17:18 18° NNW 11:19:13 10° N
ASTRO E2 4.4 11:25:22 28° ESE 11:25:22 28° ESE 11:27:31 10° E
Yuri Rocket 4.2 11:24:10 44° SSE 11:24:10 44° SSE 11:29:58 10° E
Cosmos 2242 Rocket 4.4 11:26:34 41° SE 11:27:36 49° E 11:31:57 10° NNE
Cosmos 1862 Rocket 4.0 11:30:47 57° NNE 11:30:47 57° NNE 11:34:24 10° N
H-2A R/B 3.2 11:27:43 10° NNE 11:31:18 46° E 11:31:18 46° E
OAO 2 Rocket 3.3 11:36:42 64° SSE 11:36:42 64° SSE 11:41:30 10° E
Cosmos 1627 Rocket 4.4 11:36:44 55° SW 11:37:56 67° W 11:44:18 10° N
Cosmos 773 Rocket 3.8 11:38:48 69° SSW 11:39:27 86° WNW 11:44:38 10° NNE
Iridium 4 Rocket 4.1 11:45:21 34° NNW 11:45:21 34° NNW 11:47:57 10° N
Cosmos 44 Rocket 3.3 11:47:25 54° SSW 11:48:35 88° ESE 11:53:35 10° NNE
USA 81 3.9 11:47:24 44° SSW 11:49:04 73° W 11:54:21 10° N
IDEFIX/ARIANE 42P 2.4 11:44:20 10° N 11:49:36 77° WNW 11:51:33 40° SSW
Sakura Rocket 3.6 11:50:41 43° S 11:50:47 43° S 11:55:42 10° ESE
